Ballina Observation History
Time Wind Speed Temp Pressure Rel. Hum Rain
01/06:00am WSW 5-6 kts 19.1°c 1017.0 hPa 96% 0.4mm
01/05:30am WSW 4-5 kts 19.7°c 1017.0 hPa 98% 0.4mm
01/05:00am W 5 kts 19.6°c 1016.5 hPa 97% 0.4mm
01/04:30am WNW 2-3 kts 20.1°c 1016.3 hPa 97% 0.4mm
01/04:00am WNW 4 kts 20.5°c 1016.2 hPa 96% 0.4mm
01/03:30am CALM 0 kts 20.9°c 1016.2 hPa 96% 0.4mm
01/03:00am N 3-4 kts 21.0°c 1016.4 hPa 97% 0.4mm
01/02:30am CALM 0-3 kts 20.9°c 1016.5 hPa 96% 0.2mm
01/02:00am WSW 5-6 kts 21.0°c 1016.5 hPa 96% 0.2mm
01/01:30am SSE 4-9 kts 21.3°c 1016.7 hPa 95% 0.2mm
01/01:00am W 6-7 kts 21.2°c 1016.8 hPa 96% 0.0mm
01/12:30am WSW 7-8 kts 21.3°c 1016.7 hPa 95% 0.0mm
01/12:00am WSW 5-6 kts 21.4°c 1016.9 hPa 95% 0.0mm
Time Wind Speed Temp Pressure Rel. Hum Rain
31/11:30pm W 4-6 kts 20.9°c 1016.9 hPa 96% 0.0mm
31/11:00pm WSW 5-6 kts 21.0°c 1017.1 hPa 97% 0.0mm
31/10:30pm SW 3-5 kts 21.8°c 1016.9 hPa 91% 0.0mm
31/10:00pm SSE 5-7 kts 23.4°c 1017.0 hPa 90% 0.0mm
31/09:30pm SSE 6-8 kts 23.4°c 1016.9 hPa 89% 0.0mm
31/09:00pm SSE 6-8 kts 23.6°c 1016.6 hPa 90% 0.0mm
31/08:30pm SE 7-9 kts 23.5°c 1016.2 hPa 81% 0.0mm
31/08:00pm SSE 9-13 kts 23.9°c 1015.9 hPa 81% 0.0mm
31/07:30pm SSE 7-11 kts 23.7°c 1015.6 hPa 83% 0.0mm
31/07:00pm SSE 9-13 kts 24.1°c 1015.1 hPa 84% 0.0mm
31/06:30pm S 9-13 kts 24.3°c 1015.0 hPa 81% 0.0mm
31/06:00pm S 11-15 kts 24.9°c 1014.7 hPa 79% 0.0mm
31/05:30pm S 11-16 kts 25.3°c 1014.6 hPa 77% 0.0mm
31/05:00pm S 12-17 kts 25.6°c 1014.4 hPa 73% 0.0mm
31/04:30pm SSE 13-16 kts 26.1°c 1014.2 hPa 75% 0.0mm
31/04:00pm S 11-15 kts 26.1°c 1014.1 hPa 68% 0.0mm
31/03:30pm S 10-14 kts 26.8°c 1014.0 hPa 65% 0.0mm
31/03:00pm S 12-15 kts 26.9°c 1014.0 hPa 67% 0.0mm
31/02:30pm S 12-16 kts 26.6°c 1014.1 hPa 68% 0.0mm
31/02:00pm S 12-15 kts 26.8°c 1014.2 hPa 67% 0.0mm
31/01:30pm S 11-15 kts 26.8°c 1014.4 hPa 66% 0.0mm
31/01:00pm S 10-15 kts 26.3°c 1014.8 hPa 61% 0.0mm
31/12:30pm S 10-14 kts 27.1°c 1015.2 hPa 68% 0.0mm
31/12:00pm SSW 11-16 kts 26.7°c 1015.6 hPa 65% 0.0mm
31/11:30am SSW 11-16 kts 25.9°c 1015.8 hPa 62% 0.0mm
31/11:00am SSW 6-9 kts 25.9°c 1015.8 hPa 83% 0.0mm
31/10:30am SW 6-8 kts 25.3°c 1015.7 hPa 77% 0.0mm
31/10:00am W 4-6 kts 24.7°c 1015.6 hPa 83% 0.0mm
31/09:30am SSE 3-4 kts 22.8°c 1015.6 hPa 87% 0.0mm
31/09:00am CALM 0 kts 21.7°c 1015.1 hPa 91% 0.0mm
31/08:30am CALM 0-3 kts 21.0°c 1014.9 hPa 95% 0.0mm
31/08:00am W 3-5 kts 20.3°c 1014.5 hPa 96% 0.0mm
31/07:30am CALM 0 kts 19.8°c 1014.0 hPa 96% 0.0mm
31/07:00am CALM 0 kts 19.8°c 1013.7 hPa 96% 0.0mm
31/06:30am WNW 3-5 kts 20.0°c 1013.6 hPa 96% 0.0mm
31/06:00am CALM 0-2 kts 19.7°c 1013.6 hPa 96% 0.0mm
31/05:30am WSW 3-5 kts 19.7°c 1013.5 hPa 96% 0.0mm
31/05:00am CALM 0 kts 19.9°c 1013.3 hPa 96% 0.0mm
31/04:30am CALM 0 kts 19.7°c 1013.3 hPa 96% 0.0mm
31/04:00am WSW 2-4 kts 19.8°c 1013.6 hPa 96% 0.0mm
31/03:30am WSW 1-4 kts 19.6°c 1013.7 hPa 96% 0.0mm
31/03:00am CALM 0 kts 19.3°c 1014.1 hPa 95% 0.0mm
31/02:30am CALM 0 kts 19.8°c 1014.1 hPa 97% 0.0mm
31/02:00am NW 3-4 kts 19.6°c 1014.2 hPa 95% 0.0mm
31/01:30am NW 3-4 kts 20.7°c 1014.5 hPa n/a 0.0mm
31/01:20am NW 4-5 kts 20.6°c 1014.4 hPa n/a 0.0mm
31/01:02am NW 3-5 kts 21.0°c 1014.6 hPa 94% 0.0mm
31/01:00am NW 3-4 kts 21.1°c 1014.7 hPa 93% 0.0mm
31/12:30am N 5-6 kts 21.6°c 1014.6 hPa 91% 0.0mm
31/12:00am NNE 4-5 kts 22.1°c 1014.9 hPa 90% 0.0mm
Time Wind Speed Temp Pressure Rel. Hum Rain
30/11:30pm N 5-8 kts 22.5°c 1014.8 hPa 89% 0.0mm
30/11:00pm E 4-7 kts 21.8°c 1015.1 hPa 92% 0.0mm
30/10:30pm ENE 6-7 kts 21.3°c 1014.9 hPa 94% 0.0mm
30/10:00pm SSE 7-9 kts 22.3°c 1015.8 hPa 87% 0.0mm
30/09:30pm SW 8-13 kts 23.3°c 1016.3 hPa 84% 0.0mm
30/09:00pm N 7-9 kts 23.4°c 1015.4 hPa 83% 0.0mm
30/08:30pm N 7-10 kts 23.3°c 1014.9 hPa 85% 0.0mm
30/08:00pm NNE 7-10 kts 23.1°c 1014.9 hPa 85% 0.0mm
30/07:30pm NNE 7-10 kts 23.3°c 1014.2 hPa 84% 0.0mm
30/07:00pm NNE 7-10 kts 23.6°c 1014.4 hPa 81% 0.0mm
30/06:30pm NNE 8-11 kts 24.2°c 1014.3 hPa 77% 0.0mm
30/06:00pm NNE 8-13 kts 24.8°c 1014.1 hPa 73% 0.0mm
30/05:30pm NNE 10-15 kts 25.3°c 1013.9 hPa 71% 0.0mm
30/05:00pm NNE 11-15 kts 25.7°c 1013.7 hPa 69% 0.0mm
30/04:30pm NE 12-17 kts 26.0°c 1013.7 hPa 69% 0.0mm
30/04:00pm NE 12-16 kts 26.2°c 1013.9 hPa 70% 0.0mm
30/03:30pm NE 12-16 kts 26.4°c 1014.0 hPa 68% 0.0mm
30/03:00pm NE 11-15 kts 26.8°c 1014.1 hPa 68% 0.0mm
30/02:30pm NE 10-14 kts 26.5°c 1014.2 hPa 67% 0.0mm
30/02:00pm NE 10-14 kts 26.4°c 1014.7 hPa 65% 0.0mm
30/01:30pm NE 11-15 kts 26.6°c 1015.2 hPa 67% 0.0mm
30/01:00pm NE 8-12 kts 26.7°c 1015.5 hPa 71% 0.0mm
30/12:30pm ENE 7-11 kts 25.3°c 1016.1 hPa 71% 0.0mm
30/12:00pm N 3-7 kts 25.6°c 1016.6 hPa 67% 0.0mm
30/11:30am NNW 4-7 kts 25.2°c 1016.9 hPa 66% 0.0mm
30/11:00am N 6-9 kts 26.0°c 1017.1 hPa 68% 0.0mm
30/10:30am NW 3-8 kts 24.4°c 1017.0 hPa 75% 0.0mm
30/10:00am CALM 0-1 kts 24.2°c 1017.0 hPa 77% 0.0mm
30/09:30am SW 1-4 kts 22.5°c 1016.9 hPa 82% 0.0mm
30/09:00am WSW 4-6 kts 21.4°c 1017.1 hPa 88% 2.2mm
30/08:30am W 4-5 kts 20.7°c 1017.0 hPa 92% 2.2mm
30/08:00am CALM 0 kts 18.9°c 1016.8 hPa 98% 2.2mm
30/07:30am NNW 2-4 kts 17.2°c 1016.6 hPa 98% 2.2mm
30/07:00am CALM 0 kts 16.3°c 1016.2 hPa 98% 2.2mm
30/06:37am CALM 0 kts 16.1°c 1016.2 hPa 98% 2.2mm
30/06:30am CALM 0 kts 16.1°c 1016.2 hPa 98% 2.2mm
30/06:00am CALM 0 kts 16.6°c 1016.1 hPa 98% 2.2mm
30/05:30am CALM 0 kts 16.6°c 1015.9 hPa 97% 2.2mm
30/05:15am CALM 0 kts 16.2°c 1015.9 hPa 96% 2.2mm
30/05:01am CALM 0 kts 17.0°c 1016.0 hPa 97% 2.2mm
30/05:00am CALM 0 kts 16.9°c 1016.0 hPa 97% 2.2mm
30/04:38am CALM 0 kts 16.4°c 1016.1 hPa 96% 2.2mm
30/04:30am CALM 0 kts 16.8°c 1016.2 hPa 96% 2.2mm
30/04:06am CALM 0 kts 16.8°c 1016.3 hPa 96% 2.2mm
30/04:00am CALM 0 kts 17.1°c 1016.3 hPa 96% 2.2mm
30/03:47am CALM 0 kts 17.1°c 1016.4 hPa 96% 2.2mm
30/03:30am CALM 0 kts 17.3°c 1016.5 hPa 96% 2.2mm
30/03:00am CALM 0 kts 17.5°c 1017.3 hPa 96% 2.2mm
30/02:30am SW 2-4 kts 18.1°c 1017.5 hPa 98% 2.2mm
30/02:00am CALM 0 kts 17.7°c 1017.5 hPa 97% 2.2mm
30/01:30am SW 2-4 kts 18.3°c 1017.7 hPa 98% 2.2mm
30/01:00am SW 1-3 kts 17.9°c 1017.8 hPa 96% 2.2mm
30/12:30am WSW 3 kts 18.5°c 1018.1 hPa 99% 2.2mm
30/12:00am WSW 4-6 kts 18.8°c 1018.2 hPa 97% 2.2mm